Regional Weather Roundup
Issued by NWS

Home | Current Version | Previous Version | Graphics & Text | Print | Product List | Glossary On
Versions: 1 2 3 4 5 6 7 8 9 10 11 12 13 14 15 16 17 18 19 20 21 22 23 24 25 26 27 28 29 30 31 32 33 34 35 36 37 38 39 40 41 42 43 44 45 46 47 48 49 50
000
ASUS43 KOAX 241502
RWRNE

WEATHER ROUNDUP FOR NEBRASKA
NATIONAL WEATHER SERVICE OMAHA NE
1000 AM CDT MON APR 24 2017

NOTES: SATELLITE DATA IS BEING USED TO AUGMENT CLOUD COVER ABOVE
       12000 FEET.
       "FAIR" INDICATES FEW OR NO CLOUDS BELOW 12,000 FEET WITH NO
       SIGNIFICANT WEATHER AND/OR OBSTRUCTIONS TO VISIBILITY.

  * THESE STATIONS DO NOT REPORT WEATHER SUCH AS RAIN...SNOW OR FOG.

NEZ001>004-019>022-054>056-241600-
NEBRASKA PANHANDLE

CITY           SKY/WX    TMP DP  RH WIND       PRES   REMARKS
SCOTTSBLUFF    SUNNY     57  41  55 NW16G22   29.67S
ALLIANCE       SUNNY     57  39  51 NW21G31   29.62S
CHADRON        MOSUNNY   55  41  59 NW16G26   29.63R
KIMBALL        SUNNY     56  38  52 NW23G30   29.68F
SIDNEY         SUNNY     57  39  51 NW28G36   29.65S
$$

NEZ057>060-069>072-079>082-241600-
SOUTHWEST NEBRASKA

CITY           SKY/WX    TMP DP  RH WIND       PRES   REMARKS
NORTH PLATTE   PTSUNNY   53  39  59 W3        29.55F
IMPERIAL       PTSUNNY   60  40  47 NW20G32   29.60R
LEXINGTON      PTSUNNY   57  38  48 S9        29.56S
MCCOOK         PTSUNNY   56  41  57 N13       29.53F
OGALLALA       MOSUNNY   63  41  45 NW21G29   29.58F
$$

NEZ005>010-023>029-035>040-094-241600-
NORTH CENTRAL NEBRASKA

CITY           SKY/WX    TMP DP  RH WIND       PRES   REMARKS
VALENTINE      CLOUDY    48  37  65 NW8G18    29.57R
AINSWORTH      PTSUNNY   55  40  55 SW13      29.54S
BROKEN BOW     CLOUDY    55  37  50 S12       29.56F
O`NEILL        CLOUDY    50  38  65 S9        29.57F
ORD            CLOUDY    55  34  45 S17G26    29.55F
THEDFORD       CLOUDY    55  38  53 SW8       29.55F
$$

NEZ041-046>049-061>064-073>077-083>087-241600-
SOUTH CENTRAL NEBRASKA

CITY           SKY/WX    TMP DP  RH WIND       PRES   REMARKS
GRAND ISLAND   MOSUNNY   60  37  42 S28G35    29.60F
AURORA         CLOUDY    62  35  36 S28G35    29.59F
HASTINGS       CLOUDY    61  36  39 S24G35    29.59F
HEBRON         SUNNY     61  37  41 S24G40    29.62F
HOLDREGE       MOSUNNY   58  36  43 S23G30    29.56F
KEARNEY *      MOSUNNY   59  36  41 S24G31    29.58S
YORK           CLOUDY    59  37  44 S30G39    29.61F
$$

NEZ011>018-030>034-042>045-241600-
NORTHEAST NEBRASKA

CITY           SKY/WX    TMP DP  RH WIND       PRES   REMARKS
NORFOLK        CLOUDY    59  37  44 S18G26    29.63F
ALBION         CLOUDY    60  36  41 S22G28    29.61F
BLAIR          PTSUNNY   60  36  39 S26G36    29.70S
FREMONT        CLOUDY    60  36  40 SE20G33   29.67F
TEKAMAH        CLOUDY    62  38  40 S30       29.70F
WAYNE          MOSUNNY   56  40  54 S16G24    29.66F
$$

NEZ050>053-065>068-078-088>093-241600-
SOUTHEAST NEBRASKA

CITY           SKY/WX    TMP DP  RH WIND       PRES   REMARKS
LINCOLN        MOSUNNY   62  37  39 S28G40    29.67F
OMAHA EPPLEY   PTSUNNY   61  37  41 S24G33    29.72F
BEATRICE       MOSUNNY   61  39  44 S17G31    29.70F
FALLS CITY     SUNNY     61  37  41 S25G37    29.78F
NEBRASKA CITY  CLOUDY    60  28  29 S24G38    29.75F
PLATTSMOUTH    CLOUDY    60  32  34 S22G30    29.73F
$$

NEZ044-045-051>053-067-241600-
OMAHA AREA

CITY           SKY/WX    TMP DP  RH WIND       PRES   REMARKS
OMAHA EPPLEY   PTSUNNY   61  37  41 S24G33    29.72F
BLAIR          PTSUNNY   60  36  39 S26G36    29.70S
FREMONT        CLOUDY    60  36  40 SE20G33   29.67F
MILLARD        CLOUDY    62  38  41 SE20G28   29.71F
OFFUTT AFB     PTSUNNY   61  36  40 S21G30    29.72F
PLATTSMOUTH    CLOUDY    60  32  34 S22G30    29.73F
WAHOO          FAIR      61  34  35 S35G44    29.68F
$$



USA.gov is the U.S. government's official web portal to all federal, state and local government web resources and services.